Starlink 3072

operational
NORAD ID: 49153 Int'l Des: 2021-082 Owner: SPXS Country: US Constellation: starlink
LEOCIRCULAR

Starlink 3072について

説明を読み込み中...

リアルタイム位置

3D地球を読み込み中...

次回通過

高度履歴

Altitude vs Time

uPlot chart will show altitude changes over time

軌道要素

1 49153U 21082Z 26036.25563101 -.00003029 00000-0 -24605-3 0 9991
2 49153 70.0015 336.2318 0002669 265.3272 94.7582 14.98349872243316
Epoch: Feb 5, 2026 • Age: 9 hours

現在のステータス

高度 595.7 km
速度 7.56 km/s
衛星直下点 -69.94°S, 128.04°W
打ち上げ日 Sep 14, 2021
運用期間 4.3 years
タイプ internet

技術仕様

分類 Payload
質量 297.00 kg
乾燥質量 275.00 kg
総質量 297.00 kg
長さ 0.20 m
直径 2.80 m
スパン 9.00 m
形状 Box + pan
製造者 SPXS
バスタイプ Starlink
フェーズステータス In Orbit
所有者/国 SPXS/US

大規模コンステレーション

Loading constellations...